Precipitable_Water
0.36 0.42 0.44 0.45 0.54 0.60 0.64 0.69 0.79 0.98 1.20 1.28 1.27 1.30 1.28 1.32 1.25 1.22 1.21 1.19 1.18 1.19 1.14 1.13 1.10 1.10 1.07 1.09 1.06 1.02 0.98 0.86 0.83 0.77 0.71 0.70 0.72 0.69 0.70 0.73 0.67 0.61 0.58
0.37 0.40 0.43 0.46 0.46 0.47 0.50 0.53 0.66 0.85 0.98 1.15 1.17 1.25 1.26 1.33 1.36 1.38 1.32 1.28 1.26 1.21 1.18 1.13 1.11 1.11 1.09 1.05 1.03 1.01 0.94 0.86 0.81 0.73 0.70 0.65 0.67 0.71 0.70 0.68 0.64 0.62 0.58
0.34 0.37 0.41 0.43 0.46 0.47 0.48 0.49 0.51 0.68 0.91 1.05 1.18 1.18 1.28 1.29 1.29 1.31 1.32 1.33 1.30 1.26 1.20 1.16 1.12 1.12 1.12 1.05 1.02 0.98 0.96 0.88 0.81 0.78 0.71 0.64 0.63 0.65 0.63 0.61 0.60 0.56 0.53
0.32 0.33 0.33 0.34 0.39 0.42 0.47 0.50 0.53 0.57 0.76 1.02 1.09 1.06 1.02 0.99 1.09 1.14 1.20 1.23 1.25 1.25 1.24 1.20 1.17 1.17 1.13 1.05 1.03 1.01 0.97 0.90 0.79 0.75 0.77 0.70 0.68 0.57 0.51 0.54 0.54 0.52 0.50
0.32 0.31 0.33 0.34 0.37 0.39 0.41 0.46 0.50 0.56 0.62 0.79 0.98 1.04 1.03 1.07 1.11 1.08 1.11 1.20 1.22 1.27 1.25 1.21 1.16 1.15 1.10 1.02 0.99 1.00 0.97 0.87 0.77 0.76 0.73 0.65 0.59 0.54 0.50 0.47 0.48 0.51 0.50
0.31 0.33 0.35 0.35 0.35 0.39 0.41 0.44 0.46 0.50 0.60 0.69 0.76 0.90 0.98 1.05 1.02 1.02 1.00 1.07 1.13 1.16 1.20 1.18 1.14 1.10 1.06 1.01 1.00 0.97 0.90 0.80 0.80 0.72 0.66 0.59 0.54 0.52 0.51 0.49 0.49 0.47 0.47
0.31 0.30 0.30 0.30 0.31 0.33 0.36 0.40 0.44 0.46 0.51 0.58 0.70 0.81 0.85 0.95 0.98 0.99 1.01 1.02 1.06 1.11 1.11 1.13 1.09 1.08 1.08 1.03 0.97 0.92 0.84 0.81 0.76 0.74 0.64 0.64 0.56 0.55 0.53 0.51 0.47 0.45 0.46
0.38 0.39 0.39 0.39 0.37 0.35 0.36 0.37 0.38 0.37 0.42 0.52 0.61 0.74 0.82 0.89 0.96 1.00 1.01 1.04 1.02 1.06 1.11 1.12 1.11 1.09 1.07 1.01 0.92 0.88 0.82 0.81 0.77 0.67 0.65 0.60 0.58 0.55 0.54 0.50 0.46 0.41 0.41
0.41 0.43 0.46 0.48 0.49 0.49 0.46 0.44 0.43 0.42 0.43 0.44 0.53 0.65 0.76 0.82 0.84 0.90 1.00 1.01 1.05 1.04 1.08 1.11 1.11 1.09 1.06 0.94 0.86 0.83 0.82 0.73 0.68 0.67 0.65 0.60 0.59 0.56 0.54 0.51 0.48 0.42 0.36
0.45 0.48 0.52 0.55 0.58 0.60 0.61 0.60 0.57 0.52 0.54 0.56 0.55 0.59 0.71 0.79 0.84 0.88 0.91 1.01 1.06 1.07 1.09 1.09 1.08 1.03 0.96 0.87 0.81 0.81 0.74 0.73 0.74 0.67 0.60 0.58 0.57 0.54 0.52 0.50 0.47 0.44 0.35
0.50 0.52 0.57 0.64 0.67 0.67 0.67 0.66 0.65 0.62 0.64 0.64 0.65 0.67 0.78 0.83 0.88 0.93 0.94 0.99 0.99 1.05 1.08 1.05 0.99 0.93 0.84 0.86 0.78 0.77 0.75 0.65 0.66 0.61 0.58 0.56 0.56 0.52 0.50 0.48 0.45 0.38 0.31
0.60 0.66 0.68 0.69 0.69 0.65 0.66 0.70 0.73 0.69 0.72 0.77 0.74 0.70 0.80 0.93 0.94 0.95 0.91 0.97 0.97 0.98 0.98 0.96 0.91 0.84 0.79 0.76 0.73 0.67 0.65 0.66 0.63 0.59 0.58 0.55 0.53 0.52 0.49 0.44 0.36 0.30 0.28
0.66 0.67 0.68 0.65 0.57 0.55 0.57 0.58 0.57 0.68 0.72 0.76 0.79 0.78 0.76 0.78 0.88 0.86 0.86 0.86 0.91 0.94 0.91 0.88 0.84 0.81 0.73 0.70 0.69 0.72 0.67 0.63 0.63 0.61 0.56 0.52 0.53 0.47 0.42 0.34 0.29 0.28 0.28
0.66 0.68 0.65 0.59 0.54 0.59 0.63 0.66 0.67 0.69 0.73 0.75 0.75 0.77 0.80 0.76 0.72 0.73 0.80 0.78 0.87 0.87 0.85 0.78 0.76 0.71 0.78 0.71 0.67 0.71 0.72 0.67 0.61 0.56 0.55 0.51 0.46 0.38 0.31 0.29 0.29 0.28 0.27
0.67 0.66 0.58 0.58 0.53 0.61 0.66 0.67 0.69 0.72 0.76 0.77 0.75 0.79 0.82 0.80 0.67 0.77 0.70 0.78 0.81 0.81 0.79 0.74 0.68 0.67 0.70 0.72 0.76 0.68 0.61 0.57 0.55 0.52 0.48 0.42 0.35 0.32 0.31 0.30 0.28 0.28 0.26
0.67 0.62 0.57 0.56 0.55 0.64 0.65 0.68 0.68 0.72 0.78 0.77 0.77 0.80 0.80 0.75 0.72 0.70 0.80 0.77 0.77 0.75 0.79 0.79 0.82 0.76 0.77 0.70 0.64 0.61 0.60 0.56 0.49 0.42 0.36 0.30 0.29 0.29 0.29 0.29 0.28 0.28 0.26
0.68 0.61 0.56 0.51 0.58 0.67 0.72 0.74 0.75 0.79 0.79 0.81 0.79 0.77 0.72 0.73 0.66 0.80 0.76 0.75 0.74 0.79 0.79 0.81 0.78 0.77 0.72 0.72 0.70 0.63 0.53 0.46 0.38 0.31 0.28 0.27 0.27 0.28 0.27 0.26 0.27 0.27 0.27
0.68 0.63 0.57 0.51 0.54 0.60 0.65 0.67 0.67 0.70 0.76 0.77 0.78 0.71 0.73 0.67 0.80 0.77 0.81 0.78 0.81 0.77 0.80 0.77 0.70 0.64 0.64 0.65 0.58 0.51 0.42 0.34 0.29 0.29 0.28 0.27 0.27 0.27 0.27 0.26 0.26 0.26 0.25
0.67 0.63 0.59 0.52 0.51 0.54 0.57 0.60 0.67 0.68 0.65 0.64 0.64 0.66 0.67 0.79 0.80 0.81 0.82 0.82 0.82 0.78 0.69 0.63 0.63 0.65 0.58 0.53 0.46 0.39 0.32 0.29 0.28 0.28 0.29 0.28 0.26 0.25 0.26 0.25 0.23 0.22 0.21
0.70 0.62 0.61 0.55 0.52 0.56 0.58 0.57 0.57 0.59 0.60 0.62 0.66 0.75 0.81 0.80 0.79 0.78 0.79 0.77 0.75 0.68 0.68 0.65 0.56 0.52 0.45 0.41 0.34 0.32 0.30 0.28 0.27 0.27 0.26 0.25 0.24 0.24 0.25 0.24 0.21 0.18 0.17
0.69 0.65 0.62 0.61 0.60 0.59 0.60 0.58 0.58 0.60 0.70 0.78 0.80 0.81 0.81 0.79 0.76 0.74 0.70 0.66 0.67 0.64 0.55 0.50 0.44 0.38 0.33 0.31 0.31 0.31 0.30 0.28 0.26 0.24 0.22 0.22 0.23 0.24 0.23 0.21 0.19 0.17 0.20
0.71 0.72 0.66 0.68 0.71 0.71 0.66 0.67 0.72 0.78 0.81 0.81 0.79 0.78 0.78 0.78 0.76 0.73 0.71 0.65 0.54 0.47 0.41 0.35 0.32 0.31 0.30 0.30 0.29 0.28 0.29 0.29 0.24 0.22 0.21 0.22 0.23 0.22 0.19 0.17 0.17 0.19 0.22
0.72 0.73 0.71 0.73 0.73 0.74 0.76 0.75 0.78 0.80 0.80 0.78 0.76 0.75 0.74 0.74 0.74 0.66 0.54 0.45 0.38 0.34 0.32 0.30 0.28 0.27 0.25 0.24 0.26 0.28 0.26 0.24 0.23 0.22 0.23 0.22 0.20 0.17 0.15 0.15 0.18 0.23 0.24
0.74 0.75 0.75 0.75 0.75 0.77 0.79 0.80 0.80 0.79 0.78 0.76 0.75 0.75 0.74 0.64 0.52 0.41 0.35 0.32 0.32 0.31 0.30 0.27 0.24 0.23 0.23 0.24 0.25 0.24 0.23 0.22 0.22 0.21 0.18 0.16 0.15 0.15 0.15 0.16 0.22 0.25 0.26
0.76 0.76 0.75 0.74 0.72 0.75 0.76 0.77 0.77 0.75 0.70 0.67 0.66 0.64 0.50 0.40 0.35 0.33 0.33 0.33 0.33 0.29 0.26 0.24 0.23 0.22 0.21 0.22 0.24 0.23 0.21 0.22 0.20 0.18 0.14 0.13 0.13 0.12 0.14 0.21 0.24 0.26 0.27
0.78 0.75 0.72 0.72 0.71 0.72 0.72 0.71 0.67 0.63 0.63 0.63 0.54 0.41 0.37 0.35 0.33 0.32 0.33 0.35 0.31 0.29 0.27 0.26 0.24 0.23 0.23 0.23 0.22 0.21 0.21 0.19 0.18 0.14 0.12 0.12 0.13 0.13 0.19 0.23 0.25 0.27 0.29
Wind_Speed
28 29 30 33 35 37 36 33 32 31 32 31 30 29 30 29 28 27 27 25 24 24 23 22 21 20 20 19 18 18 18 19 19 20 20 21 20 20 19 21 21 22 23
28 28 28 28 29 32 35 36 35 34 34 34 33 32 31 31 30 29 29 28 26 25 24 24 23 22 21 20 19 19 19 19 20 20 21 21 21 22 21 22 23 23 24
31 30 30 30 30 30 29 32 35 36 35 36 34 33 33 32 32 32 31 30 29 28 26 25 25 24 23 21 21 20 20 20 20 21 21 20 20 21 22 22 23 24 25
24 25 28 31 31 31 32 32 32 34 36 36 37 37 37 36 36 35 35 33 33 31 29 27 26 26 24 23 23 22 22 21 21 21 21 22 22 21 22 23 24 25 27
21 22 23 25 28 31 32 34 34 35 36 38 40 40 40 39 37 36 36 36 34 33 31 29 27 27 26 25 24 24 23 22 21 22 22 22 22 23 24 25 26 27 29
16 19 21 23 25 27 31 32 34 37 38 39 41 42 41 40 38 37 36 36 36 34 33 31 30 28 27 26 26 25 24 23 23 23 22 23 24 24 25 27 29 31 32
16 18 20 22 24 26 27 30 33 36 37 40 43 43 43 43 42 40 39 38 37 36 34 33 31 30 28 27 27 26 25 25 24 23 24 24 25 26 28 29 31 32 33
18 21 23 24 25 27 29 31 32 34 36 40 41 44 44 43 43 42 41 39 39 38 37 34 32 31 29 28 27 26 26 24 24 25 25 25 26 28 29 31 33 35 35
21 23 25 26 28 30 32 33 35 36 36 36 37 40 41 42 41 41 41 40 39 38 37 35 33 31 29 27 26 26 25 25 24 25 26 26 28 30 31 33 34 35 37
24 26 29 32 34 36 37 38 38 38 37 35 36 37 39 39 39 39 39 38 37 36 36 34 32 30 28 27 26 24 24 25 24 26 26 28 30 31 33 35 36 37 38
27 28 31 33 35 37 38 40 40 38 36 35 34 34 35 36 37 37 36 36 36 35 34 33 32 30 28 26 25 24 24 24 25 27 28 30 31 33 35 37 37 39 40
26 27 29 31 32 34 35 38 40 40 38 36 33 31 32 33 33 33 34 34 34 33 32 32 30 28 26 25 24 24 24 25 26 27 29 32 33 35 37 38 39 40 42
24 26 27 27 30 33 35 36 36 38 37 36 34 32 31 32 31 31 30 31 31 30 30 29 27 26 25 24 23 22 24 25 27 29 31 33 35 37 38 39 40 42 43
23 24 24 26 28 29 28 27 27 29 34 34 30 30 30 30 30 30 29 29 29 28 27 26 25 23 23 22 22 24 25 25 27 29 33 35 36 37 38 40 41 43 44
21 21 22 23 23 21 17 16 16 19 24 29 26 25 27 27 27 26 26 26 26 27 25 24 23 22 21 21 21 22 24 25 28 32 33 35 36 38 40 41 42 44 46
18 17 19 19 16 14 10 9 5 5 15 20 22 23 24 24 24 25 24 24 25 24 23 22 21 18 17 18 21 23 24 27 30 31 33 35 37 38 40 43 45 46 47
14 14 15 11 11 8 6 4 2 5 11 15 16 20 21 22 23 22 22 23 22 22 20 19 18 16 17 19 20 23 26 28 30 32 34 36 37 40 42 43 45 47 49
11 12 11 7 6 6 5 5 7 8 10 12 15 17 18 21 20 22 23 22 20 18 18 14 15 16 17 19 22 24 26 28 30 32 34 37 39 41 43 45 46 47 49
10 8 8 6 3 3 3 4 6 8 9 11 14 15 19 20 21 20 21 17 18 15 12 12 13 16 18 20 22 25 27 29 32 34 36 39 41 42 44 46 47 49 50
5 5 6 6 6 5 6 7 8 9 10 12 14 16 15 17 20 17 15 12 11 10 10 12 14 16 18 21 24 26 28 31 33 35 38 40 42 44 45 47 48 49 51
2 2 4 4 5 6 7 8 10 11 12 12 13 13 17 15 15 13 11 9 8 8 10 12 14 17 19 22 25 27 29 32 34 37 39 40 43 44 46 48 48 49 50
4 3 3 4 4 5 6 8 9 10 10 13 15 14 13 12 9 10 8 7 8 9 11 13 15 18 21 23 26 29 31 34 36 38 40 42 43 46 47 48 49 48 46
5 5 5 6 6 7 7 9 12 14 16 15 13 10 9 7 6 6 7 7 8 10 13 15 17 20 23 25 27 30 32 35 37 39 41 44 46 47 47 47 46 44 40
5 6 7 8 8 9 11 13 15 13 13 11 9 7 6 5 4 4 5 7 9 12 14 17 19 22 24 26 28 31 34 36 38 40 42 45 46 46 45 43 40 36 32
4 5 6 8 9 10 11 10 10 10 9 8 6 4 4 3 3 4 7 9 12 14 16 18 20 23 25 28 30 33 36 38 40 42 44 45 45 44 41 38 33 29 26
6 6 7 8 8 8 8 8 8 8 7 4 4 3 2 3 5 7 9 12 14 16 18 20 22 25 27 30 32 35 38 40 42 43 44 45 43 40 35 30 25 24 26
Wind_Direction
246 246 245 243 244 245 245 244 245 245 241 242 242 244 244 245 245 244 242 244 246 247 250 251 251 255 258 262 265 271 274 278 281 284 287 286 284 282 281 282 282 284 287
246 245 244 243 242 244 244 244 243 244 241 242 243 246 246 247 247 246 243 242 245 247 249 249 250 253 257 259 264 270 275 278 284 284 287 287 283 282 281 283 284 285 288
247 245 244 243 244 244 244 244 244 242 243 243 243 246 247 250 248 247 246 244 245 247 248 249 252 253 255 258 262 268 273 278 285 284 286 287 283 285 286 285 286 287 289
245 245 244 244 245 246 246 246 246 244 244 244 245 245 247 249 250 249 248 245 246 246 247 250 251 252 255 258 262 268 272 276 282 284 285 287 283 283 287 288 288 289 291
243 245 246 247 248 248 248 248 248 248 247 246 246 247 248 247 249 248 247 245 246 246 246 248 250 252 255 258 261 266 271 275 277 285 284 285 286 285 286 288 290 291 292
249 250 251 252 253 254 251 251 250 250 249 249 248 248 247 246 246 246 246 245 245 245 246 248 250 253 256 257 261 265 269 273 273 281 285 284 285 286 288 290 292 293 295
258 260 263 262 262 260 258 256 254 254 253 252 250 249 247 245 245 244 244 243 244 245 246 248 250 251 256 257 260 264 269 273 273 278 284 284 286 287 290 291 293 294 295
266 267 268 270 270 269 264 261 259 258 257 254 252 249 247 246 245 244 243 244 245 244 245 247 248 250 255 256 258 261 266 267 273 278 282 284 287 289 291 293 294 296 296
273 274 275 273 272 271 268 266 263 261 259 256 251 248 245 243 243 243 242 243 243 242 242 243 246 248 252 255 257 261 264 267 273 279 283 284 288 290 292 294 295 296 297
280 279 278 277 276 274 271 269 266 263 258 255 251 247 243 241 241 241 239 240 240 240 239 241 242 245 249 251 257 258 264 268 272 279 283 287 289 292 293 295 296 296 296
285 284 284 283 280 276 272 268 264 261 255 251 251 246 241 237 236 237 238 237 237 236 237 237 239 243 246 249 253 259 265 269 273 279 285 288 291 293 295 296 296 297 297
288 289 290 290 287 284 277 269 262 257 252 247 245 243 237 233 232 233 234 234 233 233 232 233 236 239 242 247 252 260 266 272 277 280 286 289 292 294 296 296 297 297 298
295 296 296 294 293 289 282 273 266 255 248 242 240 239 235 230 229 229 231 230 229 228 228 229 232 235 240 245 257 256 271 275 279 284 288 292 294 295 296 297 298 298 299
300 300 301 304 306 303 295 278 264 253 243 235 232 231 228 226 224 224 225 224 223 220 221 225 228 231 239 248 257 264 275 278 282 287 292 294 295 296 297 298 299 300 301
308 307 310 314 316 315 314 302 273 252 233 220 220 222 217 216 216 213 215 215 214 214 216 220 223 234 239 252 259 271 278 282 287 291 294 296 297 298 299 300 301 302 302
313 313 320 324 323 327 328 332 324 233 201 201 206 208 205 205 203 201 205 206 205 208 210 215 222 234 244 257 270 275 280 288 292 294 296 298 299 300 302 302 302 303 304
320 323 330 333 341 344 340 352 64 158 162 177 192 190 192 195 190 193 194 193 199 204 212 221 224 237 255 270 276 281 288 292 295 297 299 300 302 303 304 304 304 305 305
329 336 341 340 352 20 43 85 102 121 151 161 169 175 182 179 184 184 186 187 191 202 210 224 238 255 267 275 283 287 292 295 298 300 301 303 304 305 306 306 306 306 307
341 349 1 7 10 31 67 111 119 130 146 158 165 168 170 178 173 178 180 188 191 205 222 244 256 266 274 282 287 291 295 298 301 303 304 305 306 307 308 308 308 308 308
343 5 21 37 56 80 100 109 119 129 136 143 151 159 171 163 164 170 171 180 193 214 235 258 270 277 282 286 292 295 298 301 303 305 306 308 309 309 310 310 310 310 310
10 24 44 63 83 99 105 114 122 127 133 134 137 143 141 147 156 168 178 191 219 235 265 273 280 285 289 293 297 300 302 304 306 307 309 310 310 311 312 311 311 311 312
35 126 99 89 99 108 108 117 127 138 141 139 133 136 141 149 157 176 193 219 244 264 278 283 288 291 296 300 302 304 306 308 309 310 311 311 312 313 313 313 313 313 314
71 95 120 115 107 112 95 134 137 133 134 135 139 143 146 156 175 202 226 247 265 278 287 291 296 299 302 304 306 308 310 311 312 312 313 314 314 314 314 314 315 315 315
103 108 115 114 115 115 115 119 127 132 138 141 145 154 167 182 203 240 258 275 286 292 297 300 302 304 306 308 310 311 312 313 314 315 315 316 316 315 315 316 316 316 317
157 141 131 124 124 127 128 132 138 143 145 151 156 165 179 208 248 275 288 296 300 301 302 304 306 308 310 311 313 314 315 315 316 316 317 317 317 317 317 317 318 319 321
177 161 153 148 140 138 140 142 147 150 149 155 167 180 215 267 287 296 302 305 306 307 308 309 310 312 312 314 316 316 317 317 318 318 318 318 318 317 317 318 320 323 325